Regional Weather Roundup
Issued by NWS

Home | Current Version | Previous Version | Text Only | Print | Product List | Glossary On
Versions: 1 2 3 4 5 6 7 8 9 10 11 12 13 14 15 16 17 18 19 20 21 22 23 24 25 26 27 28 29 30 31 32 33 34 35 36 37 38 39 40 41 42 43 44 45 46 47 48 49 50
823
ASUS43 KIND 261209
RWRIN

WEATHER ROUNDUP FOR INDIANA
NATIONAL WEATHER SERVICE INDIANAPOLIS IN
800 AM EDT MON JUN 26 2017

NOTE: "FAIR" INDICATES FEW OR NO CLOUDS BELOW 12,000 FEET WITH NO
SIGNIFICANT WEATHER AND/OR OBSTRUCTIONS TO VISIBILITY.

* - STATION DOES NOT REPORT WEATHER SUCH AS PRECIPITATION OR FOG.

+ - STATION NOT QUALITY CONTROLLED BY THE NATIONAL WEATHER SERVICE.
    USE DATA WITH CAUTION...ESPECIALLY DEWPOINT AND RELATIVE
    HUMIDITY OBSERVATIONS.

INZ001>003-010>013-019-020-261300-
NORTHWEST INDIANA

CITY           SKY/WX    TMP DP  RH WIND       PRES   REMARKS
GARY /AIRPORT/ PTSUNNY   57  50  77 W9        30.13S
KNOX *+        SUNNY     55  43  62 W9        30.13R
LA PORTE +     SUNNY     56  51  80 W7        30.13R
6HR MIN TEMP:  51; 6HR MAX TEMP:  59;

MICHIGAN CITY+ SUNNY     55  52  88 SW5       30.12S
MONTICELLO +   SUNNY     57  50  76 W8        30.14S
6HR MIN TEMP:  52; 6HR MAX TEMP:  57;

VALPARAISO     SUNNY     59  51  75 W9        30.13R
6HR MIN TEMP:  53; 6HR MAX TEMP:  59;


$$

LMZ046-743>745-261300-
SOUTHERN LAKE MICHIGAN

STATION/POSITION TIME  TEMP    WIND        PRES    WAVE
                       AIR SEA DIR/SP/G            HT
                 (UTC) (F)     (DEG/KT/KT) (MB)    (FT)
BURNS HARBOR     1140   60     250/ 12/ 15 1020.0S
MICHIGAN CITY    1140   60     240/ 16/ 17   N/A
5NW MICH CITY    1200   62 66  270/ 12/ 16   N/A     3

$$

INZ004-005-014>016-021>024-261300-
NORTH CENTRAL INDIANA

CITY           SKY/WX    TMP DP  RH WIND       PRES   REMARKS
ELKHART        SUNNY     57  54  88 W9        30.10R
GOSHEN         SUNNY     57  51  80 W8        30.11R
6HR MIN TEMP:  52; 6HR MAX TEMP:  57;

LOGANSPORT +   SUNNY     55  52  88 W6        30.15S
PERU/GRISSOM   SUNNY     57  53  86 W12       30.13S
6HR MIN TEMP:  52; 6HR MAX TEMP:  57;

ROCHESTER +    SUNNY     59  52  77 W8        30.14R
SOUTH BEND     SUNNY     56  53  90 SW6       30.12R
6HR MIN TEMP:  52; 6HR MAX TEMP:  58;

WARSAW +       SUNNY     55  50  82 W7        30.12S

$$

INZ006>009-017-018-025>027-261300-
NORTHEAST INDIANA

CITY           SKY/WX    TMP DP  RH WIND       PRES   REMARKS
AUBURN +       PTSUNNY   55  50  82 SW6       30.11R
FORT WAYNE     MOSUNNY   57  50  77 W10       30.12R
6HR MIN TEMP:  55; 6HR MAX TEMP:  59;

HUNTINGTON +   MOSUNNY   56  51  83 W7        30.13R
6HR MIN TEMP:  52; 6HR MAX TEMP:  57;

KENDALLVILLE + PTSUNNY   56  53  89 W8        30.11R

$$

INZ028-029-035-036-043>045-051>053-261300-
WEST CENTRAL INDIANA

CITY           SKY/WX    TMP DP  RH WIND       PRES   REMARKS
CRAWFORDSVL +  MOSUNNY   55  54  95 W3        30.17S
6HR MIN TEMP:  49; 6HR MAX TEMP:  55;

GREENCASTLE +  SUNNY     57  50  77 CALM      30.18S
LAFAYETTE      SUNNY     55  53  93 W6        30.16R
6HR MIN TEMP:  49; 6HR MAX TEMP:  55;

TERRE HAUTE    MOSUNNY   58  52  80 W3        30.18R
6HR MIN TEMP:  53; 6HR MAX TEMP:  59;


$$

INZ030>032-037>040-046>048-054>057-064-065-261300-
CENTRAL INDIANA

CITY           SKY/WX    TMP DP  RH WIND       PRES   REMARKS
CP ATTERBURY + SUNNY     55  52  88 CALM      30.18S
COLUMBUS       SUNNY     59  50  72 CALM      30.18R
FRANKFORT +    SUNNY     59  53  82 W7        30.17S
6HR MIN TEMP:  53; 6HR MAX TEMP:  59;

GREENWOOD *+   MOSUNNY   58  50  76 W3        30.17S
INDIANAPOLIS   MOSUNNY   58  52  80 W6        30.17R
6HR MIN TEMP:  53; 6HR MAX TEMP:  59;

-EAGLE CREEK   SUNNY     60  50  69 VRB7      30.16R
6HR MIN TEMP:  55; 6HR MAX TEMP:  61;

KOKOMO +       MOSUNNY   58  51  78 W9        30.15R
6HR MIN TEMP:  53; 6HR MAX TEMP:  58;

MARION +       SUNNY     57  52  82 W7        30.15R
MT COMFORT *+  SUNNY     59  52  77 W7        30.16S
SHELBYVILLE    MOSUNNY   60  50  69 W6        30.16R
6HR MIN TEMP:  54; 6HR MAX TEMP:  62;

ZIONSVILLE +   SUNNY     56  50  80 W7        30.17R
6HR MIN TEMP:  51; 6HR MAX TEMP:  56;


$$

INZ033-034-041-042-049-050-058-059-261300-
EAST CENTRAL INDIANA

CITY           SKY/WX    TMP DP  RH WIND       PRES   REMARKS
MUNCIE         SUNNY     59  51  75 W9        30.14S
6HR MIN TEMP:  55; 6HR MAX TEMP:  60;

RICHMOND +     SUNNY     55  50  82 W6        30.16R

$$

INZ060-061-067>069-081>083-085>088-261300-
SOUTHWEST INDIANA

CITY           SKY/WX    TMP DP  RH WIND       PRES   REMARKS
EVANSVILLE     SUNNY     59  54  83 SW3       30.21R
6HR MIN TEMP:  53; 6HR MAX TEMP:  64;

HUNTINGBURG *+ SUNNY     59  54  83 CALM      30.20S
6HR MIN TEMP:  52; 6HR MAX TEMP:  60;

WASHINGTON +   SUNNY     57  54  88 CALM      30.19S
6HR MIN TEMP:  51; 6HR MAX TEMP:  59;


$$

INZ062-063-066-070>080-084-089>092-261300-
SOUTH CENTRAL AND SOUTHEAST INDIANA

CITY           SKY/WX    TMP DP  RH WIND       PRES   REMARKS
BEDFORD +      SUNNY     57  50  77 CALM      30.18S
BLOOMINGTON    MOSUNNY   58  51  78 CALM      30.18S
6HR MIN TEMP:  50; 6HR MAX TEMP:  58;

MADISON *+     SUNNY     59  52  77 CALM      30.20R
NORTH VERNON + SUNNY     57  52  82 W3        30.18R
SEYMOUR +      SUNNY    N/A N/A N/A CALM      30.18R

$$





USA.gov is the U.S. government's official web portal to all federal, state and local government web resources and services.